Wind_Speed
8 8 8 7 7 4 3 4 2 2 3 2 1 0 1 2 1 1 2 1 0 2 2 1 1 1 1 1 2 3 3 3 3 2 1 3 2 1 9 7 2 10 19 22 24 24 23 23 21 19 18 17 16 15 14 14 13 12 12 11 10 8 7 7 7 8 9 8 8 7 7 7 7 7 6 6 6 6 5 5 6 7 6 6 5 6 7 7 6 6 5 5 4 4 4 4 4
9 7 7 6 6 4 0 2 3 2 4 3 1 1 2 2 1 2 2 1 2 2 1 1 2 1 0 1 1 2 1 3 3 1 2 3 4 2 7 8 1 7 18 21 24 25 23 23 22 20 18 17 16 16 15 14 13 12 12 11 10 8 7 7 6 7 8 8 8 8 7 7 6 6 5 5 4 5 5 4 5 6 5 4 4 5 6 6 6 4 3 3 3 3 3 2 1
9 6 8 4 4 4 1 3 3 1 3 3 1 3 2 1 2 4 4 4 4 2 2 0 1 1 1 2 1 2 0 3 2 2 3 5 4 3 5 9 3 6 17 20 23 25 23 23 22 21 20 17 16 16 15 14 13 12 12 11 10 9 7 7 6 6 7 7 7 7 7 7 6 6 5 4 3 4 6 4 4 5 3 3 5 6 5 5 5 4 3 4 5 6 7 6 4
7 6 8 2 2 4 3 4 2 3 3 2 1 2 2 2 3 4 5 5 4 2 1 1 1 1 2 2 1 1 2 2 2 4 1 5 5 4 5 10 4 7 15 19 22 24 23 22 21 21 20 18 16 15 15 14 13 13 12 11 10 9 8 7 6 6 6 7 7 7 7 6 6 5 4 3 2 4 5 4 4 4 3 2 4 5 4 4 4 6 7 7 8 10 11 10 8
5 5 7 1 2 2 2 3 2 3 2 3 2 2 3 4 3 4 5 4 3 1 1 2 1 1 1 0 1 1 2 1 2 3 2 5 6 4 6 9 5 7 14 17 19 23 23 22 21 20 20 18 16 15 15 14 13 12 12 11 10 9 8 7 6 6 7 7 7 7 7 6 6 5 4 3 3 4 4 4 3 2 2 3 4 4 5 5 7 9 10 10 11 12 15 13 9
4 4 8 7 3 1 2 3 3 3 2 4 3 3 4 4 4 4 5 4 2 1 0 1 1 0 0 2 1 2 2 1 3 3 2 4 7 3 6 8 5 6 12 16 17 21 22 21 22 20 20 18 16 15 15 15 13 12 11 11 10 9 8 8 7 7 7 7 7 7 7 7 6 5 4 3 3 3 4 4 3 2 2 4 5 5 5 7 9 9 10 11 12 13 16 16 13
5 2 4 6 3 2 3 3 3 2 2 3 2 3 4 4 3 2 5 2 0 1 2 1 0 2 0 2 1 3 3 3 4 4 6 7 6 1 6 8 5 6 11 14 15 18 20 21 21 21 20 19 17 15 16 15 14 12 12 10 9 8 8 7 7 7 7 7 8 7 7 6 6 5 4 3 3 3 3 4 3 2 3 4 5 4 5 7 9 8 7 10 13 14 16 17 16
7 2 0 4 2 3 3 3 2 2 0 2 3 3 5 4 2 1 3 1 0 1 2 3 1 2 1 2 1 3 2 4 6 7 8 6 4 0 5 7 5 5 9 13 14 16 19 21 21 21 20 19 19 17 16 16 15 13 12 11 9 9 8 7 7 7 8 7 8 7 6 6 5 5 4 4 2 3 3 3 4 3 4 4 2 2 3 4 5 5 7 11 13 14 16 17 17
6 4 0 3 2 3 3 1 0 2 2 3 3 4 5 3 2 1 2 2 2 1 3 4 1 1 2 2 1 3 4 6 7 5 5 3 2 1 4 6 4 3 6 12 13 14 16 19 21 21 20 19 19 18 17 16 16 14 13 12 10 9 9 8 8 8 9 8 8 7 7 6 5 5 5 5 3 3 3 3 4 4 3 2 1 0 2 3 5 6 9 11 13 14 16 17 15
5 5 1 3 3 3 2 0 0 1 3 3 3 5 5 2 2 0 0 1 2 2 4 2 1 2 1 2 2 2 7 8 6 5 6 4 3 2 3 4 3 2 4 9 12 13 14 17 20 21 21 20 19 18 17 16 16 16 14 13 12 11 9 9 9 9 10 9 8 8 8 7 7 6 6 6 5 4 4 4 4 4 3 2 1 1 4 6 8 9 10 11 12 14 15 16 13
3 4 2 3 3 2 2 2 2 2 4 4 3 5 4 3 2 1 1 1 2 3 3 2 1 1 1 2 1 3 8 7 6 7 6 4 3 1 2 3 2 1 2 6 9 11 12 14 18 20 21 20 19 18 18 16 16 15 15 14 12 12 10 10 10 10 11 11 10 10 9 8 8 7 6 7 6 4 5 5 4 4 3 1 0 2 4 7 8 9 10 11 12 13 14 14 11
2 3 3 4 2 2 2 2 2 4 5 3 2 3 2 3 1 0 1 1 2 4 3 2 1 2 1 2 1 4 12 12 10 8 6 4 4 1 1 2 1 0 1 4 7 9 10 12 15 19 20 20 20 19 18 17 16 15 15 15 13 12 11 10 11 10 11 12 11 11 10 9 9 8 7 7 6 6 6 6 5 4 3 1 2 4 4 6 7 9 10 10 11 13 14 13 9
3 1 4 3 2 2 2 2 2 3 4 2 1 2 2 2 1 3 2 1 2 3 2 3 1 1 1 2 1 4 11 15 12 8 6 4 3 3 3 2 2 1 1 2 5 7 8 10 12 16 19 20 20 20 20 19 18 16 15 16 15 13 11 11 11 11 12 12 12 11 10 10 10 9 8 7 7 7 7 6 5 4 2 1 3 4 4 5 6 9 10 11 12 13 14 12 8
2 2 4 3 0 1 2 1 1 1 1 2 2 2 1 1 2 3 4 2 3 1 1 1 3 2 0 2 3 2 8 16 12 8 8 5 4 3 3 4 3 2 2 1 3 5 7 9 10 13 17 20 20 20 20 20 20 18 16 16 16 15 13 11 12 12 12 13 12 12 12 11 12 11 9 8 7 8 6 5 5 4 3 2 3 3 6 7 7 9 10 11 12 13 13 10 7
3 2 4 4 1 1 2 0 1 4 2 3 1 2 2 1 2 2 3 2 3 2 1 1 2 0 0 1 2 4 12 17 10 7 6 4 3 3 3 4 3 3 3 3 2 4 6 8 10 11 14 17 20 20 19 19 20 19 18 17 16 16 15 13 12 13 12 13 13 13 13 13 13 12 11 9 7 6 6 6 6 5 3 3 3 4 7 9 9 9 9 11 12 12 11 8 7
3 3 4 3 2 0 3 2 1 3 2 4 2 1 2 2 2 1 2 1 3 3 3 1 1 1 1 2 3 9 14 14 8 5 4 2 3 2 2 3 3 2 2 3 3 3 5 8 10 11 12 14 18 20 20 20 20 20 19 18 17 17 16 14 13 13 13 14 13 13 14 14 14 14 12 10 7 6 7 7 7 5 4 4 5 6 8 9 10 10 10 11 11 12 11 8 6
3 3 4 3 2 2 3 3 3 3 3 4 2 1 3 3 2 1 1 2 2 4 4 3 1 2 4 3 7 12 12 11 8 4 5 7 6 5 5 5 4 2 1 2 2 4 5 7 10 12 12 12 14 17 20 22 22 20 19 18 17 17 16 16 15 14 13 13 14 14 14 14 14 14 13 11 8 8 8 7 7 7 6 5 5 6 8 9 11 11 10 11 12 13 12 9 7
4 3 3 2 2 2 4 6 5 3 2 3 1 1 3 1 4 2 1 2 3 4 5 4 3 4 9 10 13 15 14 14 13 13 15 16 16 14 13 12 10 7 5 3 3 5 6 7 9 12 13 13 13 14 17 20 22 22 20 18 18 18 17 18 16 15 14 13 14 14 14 13 13 14 13 11 10 9 9 8 8 9 9 7 5 6 7 9 10 11 12 13 14 14 14 12 8
3 3 3 1 5 3 4 6 5 3 1 3 2 1 2 1 2 2 2 4 5 5 5 5 5 3 9 15 19 19 19 21 21 22 22 21 21 20 19 18 15 12 10 7 5 6 8 9 9 11 13 14 13 14 15 16 19 21 21 20 19 18 18 18 16 16 16 15 14 14 14 14 14 14 13 12 10 9 10 10 9 10 11 8 5 7 7 10 11 10 13 14 15 14 15 14 9
2 3 3 3 5 3 3 5 6 4 1 2 2 1 1 2 3 1 2 6 4 2 3 3 5 5 6 11 18 21 22 25 25 25 23 21 20 19 19 19 18 16 13 11 8 7 9 11 11 11 12 13 14 13 15 16 16 18 19 19 19 19 17 16 16 16 16 15 14 14 15 15 16 14 14 13 10 9 10 12 11 11 12 10 6 8 9 11 10 10 13 15 16 15 15 15 12
2 3 3 4 2 1 3 5 5 3 2 2 1 2 4 2 2 1 2 3 4 0 3 2 4 5 5 6 13 19 20 23 24 24 22 21 20 20 19 18 17 16 15 13 9 7 8 11 13 13 11 11 12 12 14 16 15 16 17 17 17 17 16 15 15 16 17 15 14 16 16 16 16 15 14 12 9 10 11 12 13 14 15 12 9 9 8 9 10 12 14 15 17 16 15 15 14
1 1 3 4 3 1 3 4 3 2 2 1 0 3 2 1 1 2 4 2 2 2 3 3 4 4 5 6 9 14 17 18 20 21 20 20 21 21 21 19 17 16 16 15 12 8 6 8 12 15 14 11 11 11 12 14 15 15 15 15 14 13 13 13 13 15 17 16 15 17 18 18 18 16 15 12 10 11 13 14 16 17 17 14 10 9 7 10 13 14 13 15 18 17 16 15 15
1 1 1 3 4 2 2 2 2 3 2 1 2 1 0 2 3 2 3 1 0 2 3 5 7 7 7 8 9 11 13 13 15 17 18 19 20 21 21 21 20 19 19 18 15 11 8 5 8 12 14 13 10 10 10 12 13 14 14 13 12 13 12 9 11 13 15 16 16 17 18 19 19 19 17 14 11 10 13 14 14 15 14 14 11 9 8 12 13 11 10 14 17 16 16 15 15
3 1 2 1 4 4 3 2 2 3 2 4 2 1 1 0 2 1 3 3 3 4 5 8 9 9 10 10 11 11 12 13 14 15 16 18 18 18 20 21 20 20 21 20 18 15 12 7 3 7 11 12 10 9 8 9 11 11 11 11 10 11 9 7 11 10 11 14 16 18 18 17 19 21 18 15 11 9 13 14 14 15 14 15 13 11 10 10 11 10 10 13 15 15 15 15 15
3 2 2 1 3 5 4 3 4 5 5 4 0 1 3 4 3 2 4 3 3 4 7 8 8 10 12 11 11 11 12 14 15 16 18 18 18 19 21 22 21 22 23 22 20 18 16 12 7 0 5 8 8 8 8 8 8 8 8 8 7 6 5 7 10 7 8 11 13 15 15 15 16 18 18 14 9 9 13 14 15 16 18 19 18 15 11 8 10 10 11 12 13 14 14 14 14
2 3 2 2 3 5 3 4 4 5 4 1 1 2 1 2 1 4 3 3 3 4 7 6 7 10 10 9 10 11 12 14 16 16 18 20 22 24 24 23 23 23 23 22 21 19 18 16 12 7 4 4 7 7 6 7 7 6 6 6 4 2 2 4 7 7 7 8 10 10 9 13 14 13 13 11 8 11 11 11 12 13 15 19 18 15 12 9 10 11 12 12 13 14 13 13 14
3 3 3 4 4 5 2 3 3 3 3 3 4 3 1 2 0 3 1 2 2 5 7 6 7 9 8 7 8 10 12 13 15 16 20 23 25 25 24 23 23 22 22 22 21 19 18 18 16 13 11 7 7 8 6 6 6 5 4 4 3 2 0 0 3 4 4 5 6 7 7 8 8 7 8 9 10 10 9 8 11 13 13 14 14 15 13 11 11 11 11 11 13 13 13 13 13
1 1 4 6 6 6 2 3 4 1 2 4 6 2 2 3 2 3 1 2 3 6 7 6 8 6 6 6 7 9 10 13 17 19 19 21 21 22 22 22 22 21 22 22 21 19 18 19 18 17 16 13 11 10 7 7 6 5 5 5 4 2 1 1 1 2 3 3 3 3 5 6 6 5 7 9 9 8 10 10 12 15 15 14 15 16 14 12 12 12 11 11 13 12 13 14 14
1 3 3 8 8 6 5 4 4 2 0 3 4 0 4 5 2 1 1 2 3 6 6 7 6 4 5 5 5 7 10 13 17 19 17 17 17 18 19 19 19 20 20 21 20 20 20 20 19 18 17 16 15 13 12 11 10 9 9 9 7 5 4 4 4 4 3 4 4 3 4 5 5 5 6 8 8 9 11 10 9 12 14 15 15 15 14 13 13 13 13 13 12 11 12 13 14
1 3 2 5 7 6 5 3 4 3 1 1 0 1 4 3 4 4 2 2 1 6 6 5 4 4 4 4 4 6 10 13 15 17 17 17 17 17 17 17 18 19 20 21 22 22 22 22 21 20 19 18 18 16 16 16 16 16 16 15 14 13 12 12 13 10 8 8 6 6 4 4 4 4 5 7 8 8 8 7 7 9 10 11 12 12 12 12 12 12 13 12 11 11 11 11 13
1 1 2 2 2 5 6 3 4 2 0 2 1 2 3 4 4 6 4 2 3 5 4 4 4 4 4 4 5 5 8 12 14 17 18 17 17 17 17 17 18 19 20 23 24 24 24 25 25 24 23 22 22 21 21 22 21 21 22 22 21 21 20 20 21 19 17 15 12 12 11 8 8 7 5 4 4 5 5 5 5 6 7 9 9 9 9 10 10 10 11 12 12 12 12 12 13
3 1 3 2 1 5 7 3 2 1 1 4 3 2 3 4 3 7 6 2 6 6 3 4 3 4 4 4 5 4 6 11 16 18 18 17 17 17 17 17 19 20 21 23 24 25 26 27 28 28 27 27 27 25 24 24 24 25 25 25 24 24 24 25 26 26 25 24 22 21 20 18 17 16 13 10 8 8 8 9 9 10 10 10 10 8 8 10 10 10 10 10 11 12 13 13 12
3 0 3 2 2 3 6 2 2 1 1 4 2 2 2 2 2 6 5 3 5 5 3 3 3 4 4 4 5 5 5 8 14 18 18 17 16 16 17 17 18 19 21 23 25 26 27 28 29 30 30 30 30 29 28 28 29 30 29 28 28 27 27 29 29 28 28 28 28 28 26 25 24 23 22 19 18 18 17 15 14 13 13 11 10 9 9 9 9 9 9 9 10 11 12 12 12
3 1 2 3 3 2 3 3 2 5 2 2 3 1 3 3 2 4 4 3 4 5 3 3 3 3 4 4 5 5 5 5 9 15 17 16 15 15 16 17 18 19 21 23 25 26 27 28 29 30 31 31 32 31 31 31 31 31 31 30 30 30 29 30 29 29 30 29 28 28 26 26 26 25 25 24 23 23 22 20 17 16 14 13 12 11 11 11 10 9 9 10 10 11 11 12 12
3 2 2 3 3 3 3 3 2 4 3 2 3 3 7 3 3 3 4 3 4 5 2 2 3 3 4 4 4 4 5 5 7 13 15 14 15 15 16 18 18 20 21 22 24 25 26 27 28 29 30 31 31 30 30 30 30 31 31 29 29 31 30 29 29 29 29 29 27 26 25 25 24 24 24 23 23 23 23 21 20 19 17 14 14 14 14 13 13 12 11 10 10 9 9 10 11
6 5 4 3 3 4 5 4 4 2 3 4 3 5 8 5 1 2 3 2 4 4 2 2 3 3 3 3 3 4 4 4 7 11 13 14 15 15 16 17 19 20 21 22 24 25 26 26 27 28 28 29 29 28 28 28 28 29 29 28 30 31 29 28 28 28 28 27 26 25 24 24 23 23 23 22 22 22 22 21 21 20 19 18 18 18 17 16 15 15 13 12 11 10 10 10 11
6 5 4 4 4 4 4 3 5 1 1 5 4 5 9 7 2 2 2 1 3 3 3 3 3 3 3 3 3 3 3 3 6 11 13 15 15 15 16 17 19 21 22 23 24 26 25 25 26 25 25 25 25 25 25 25 26 27 29 30 31 31 29 28 29 29 29 28 27 25 25 24 22 23 23 22 21 21 21 21 20 19 19 20 22 21 19 17 16 15 14 14 14 14 13 14 15
5 4 3 3 4 5 4 1 3 2 2 3 1 2 9 7 2 3 2 2 3 2 2 2 2 2 2 2 2 2 1 2 6 11 15 16 16 16 17 18 20 21 22 24 25 26 26 26 26 25 24 24 24 24 24 26 27 27 29 32 32 31 30 30 32 32 30 29 28 27 26 25 24 25 25 24 23 23 23 22 22 21 21 21 21 20 19 18 18 17 16 15 15 15 15 16 19
3 3 3 3 3 3 5 2 3 2 2 3 1 1 8 5 1 3 2 2 1 2 1 1 1 2 1 1 1 2 1 2 5 9 14 15 14 15 17 19 20 20 21 23 24 26 27 27 27 27 26 26 26 26 26 29 30 29 31 32 32 33 34 33 33 33 31 30 30 29 28 27 26 27 26 25 25 25 24 25 24 23 23 22 21 21 21 22 22 21 20 18 16 16 15 16 18
3 3 3 4 2 1 3 3 3 2 0 2 1 3 6 2 1 2 1 1 2 1 2 1 1 1 1 1 1 2 2 3 4 6 9 12 12 14 17 18 19 20 21 22 24 26 27 26 26 27 27 28 28 29 30 31 32 33 34 34 34 35 36 34 34 34 33 33 33 33 32 30 29 29 28 27 27 26 26 25 25 24 24 23 23 23 24 24 24 23 23 21 19 18 17 16 16
3 5 6 5 4 5 6 2 2 2 3 0 2 3 5 2 2 2 0 1 1 1 2 2 1 1 1 1 1 2 2 3 3 3 6 9 11 13 15 16 18 20 21 22 23 25 25 25 25 25 26 27 28 30 31 32 33 34 35 35 35 35 35 34 35 36 36 36 36 36 35 33 32 32 31 31 30 29 28 27 26 26 26 25 25 25 25 25 24 23 22 21 21 20 17 17 17
3 5 10 10 7 7 5 1 3 2 3 2 2 2 5 2 2 3 2 2 2 0 2 2 0 0 1 1 1 1 2 2 2 2 3 6 9 11 13 15 17 19 20 21 23 25 26 25 24 24 24 25 25 25 26 27 29 31 32 33 34 36 36 34 34 35 36 36 36 35 34 33 33 33 33 32 31 31 30 29 29 28 28 28 27 27 27 27 26 26 24 23 23 21 19 20 21
2 4 8 10 7 5 4 3 2 1 3 2 2 3 4 5 4 2 2 2 2 1 1 2 2 1 2 2 1 1 1 1 1 2 3 5 7 9 12 14 16 18 19 21 23 26 28 28 27 26 26 25 25 25 24 25 27 29 31 34 36 38 37 32 31 33 34 34 33 33 32 32 31 31 31 31 30 30 29 29 28 28 28 28 27 27 28 27 27 26 25 25 24 23 23 23 23
3 3 4 7 7 6 6 6 4 3 2 2 2 2 2 4 4 2 1 2 3 3 3 3 3 4 3 3 2 2 2 1 1 1 2 5 6 8 10 12 15 18 20 22 25 27 28 29 29 29 28 28 28 27 27 27 29 31 34 37 38 38 36 32 31 32 32 31 31 31 31 31 30 30 29 29 28 28 27 27 27 26 27 26 26 26 26 24 24 23 23 24 24 24 24 23 23
4 2 6 6 6 6 5 5 3 1 1 3 3 1 1 4 4 2 1 2 6 5 6 6 6 6 5 4 4 3 2 2 2 1 2 4 6 8 10 12 15 18 20 23 26 27 29 29 29 29 29 29 28 28 28 28 30 32 34 37 37 35 34 32 30 30 29 29 30 30 29 29 29 28 28 27 27 26 26 25 25 25 25 25 24 24 23 22 22 22 22 22 22 22 22 21 21
4 6 7 6 5 5 4 4 3 2 0 5 5 4 3 4 4 2 1 3 8 6 7 7 6 6 6 6 5 4 3 2 2 3 3 4 6 8 10 13 15 17 20 23 26 27 28 28 28 29 29 29 28 28 28 29 30 31 32 34 35 33 31 30 29 28 28 27 28 28 27 27 27 26 26 25 25 24 24 24 24 24 24 23 23 22 22 22 22 22 21 21 20 20 19 19 19
6 6 6 6 5 4 3 2 3 2 2 6 6 5 4 3 4 4 4 4 5 6 5 6 6 7 8 6 5 5 4 3 3 3 5 6 7 9 11 13 15 17 20 23 25 26 27 27 27 29 29 28 28 28 29 30 29 30 31 31 31 30 29 28 27 27 26 25 26 26 26 25 25 25 24 24 24 23 23 23 22 22 22 22 22 22 22 22 21 21 20 20 20 20 19 18 18
5 4 4 4 3 3 3 4 3 1 5 5 4 2 3 4 4 4 5 4 4 7 8 10 11 10 10 7 5 5 5 4 4 3 5 7 8 10 11 13 15 17 20 22 24 25 26 26 27 29 29 28 28 28 28 29 28 28 28 28 28 27 26 25 26 26 24 24 24 24 23 23 23 22 22 22 22 22 21 21 21 21 21 22 22 22 21 21 21 20 20 20 20 19 19 18 18
4 4 5 4 2 2 1 3 1 3 5 3 2 1 3 5 6 7 6 5 5 5 5 11 15 13 11 8 6 5 5 5 4 4 4 7 9 11 12 13 15 17 19 21 24 25 26 26 26 28 28 27 27 26 27 27 27 26 26 26 26 25 25 24 24 24 23 23 22 22 22 22 22 22 21 22 21 21 20 20 20 21 21 21 21 21 21 21 21 21 21 21 20 20 19 19 18
4 5 5 4 2 1 3 3 2 4 4 2 2 1 2 4 5 6 5 4 4 3 2 4 10 13 11 9 7 6 6 5 4 4 5 8 11 12 13 14 15 17 19 21 23 24 25 26 26 27 28 26 25 25 26 26 26 25 24 24 24 23 24 24 24 23 22 22 22 22 22 22 22 22 22 22 21 21 21 21 21 21 21 21 21 21 21 22 22 22 22 22 22 21 21 20 20
4 4 5 4 5 4 4 4 3 4 2 2 3 2 4 3 2 3 3 3 3 2 2 1 3 6 7 7 6 7 7 5 4 4 6 9 12 13 13 14 15 17 19 20 22 24 25 25 25 27 27 26 25 25 25 25 25 24 23 23 23 23 23 24 23 23 22 22 22 22 22 22 22 22 22 22 22 22 23 23 23 23 23 23 23 23 24 24 24 24 23 23 23 22 22 22 22
2 2 4 3 4 4 2 3 4 2 1 2 2 3 4 4 2 2 2 3 3 2 1 1 3 4 6 6 7 8 7 6 5 5 6 10 13 14 14 15 16 17 19 20 22 24 25 25 25 26 26 25 24 24 24 24 24 23 22 22 22 22 22 22 23 22 22 22 21 21 21 21 21 21 21 21 22 23 23 24 24 24 25 25 26 26 26 26 26 26 26 26 25 25 25 24 24
2 2 4 4 3 6 4 2 1 3 2 4 3 3 3 1 2 2 2 2 3 2 1 3 5 6 7 8 9 9 8 7 6 6 8 11 14 15 15 16 17 18 19 21 22 23 24 25 26 26 26 25 24 23 23 23 22 22 22 21 21 21 21 21 21 21 20 20 20 20 19 18 19 19 20 20 21 22 23 23 23 24 25 25 26 26 27 27 27 27 27 27 27 26 26 26 25
6 3 5 3 2 4 3 2 2 2 3 4 2 4 3 2 2 2 1 3 6 4 2 3 5 7 9 11 10 9 8 7 7 7 9 13 15 16 17 17 18 20 20 21 22 23 24 24 25 26 25 24 23 22 21 20 20 20 20 20 19 19 19 19 19 18 18 18 19 19 18 18 18 18 18 19 19 20 21 21 22 22 23 24 24 25 25 26 26 27 27 27 27 28 28 28 27
5 4 3 4 3 2 2 2 2 1 4 4 2 2 3 5 5 3 5 9 9 7 4 5 9 11 12 12 11 10 8 7 7 7 7 11 16 17 18 19 19 20 20 21 22 23 24 24 24 24 24 23 22 21 20 19 18 18 18 17 17 16 15 15 15 15 16 17 18 19 19 19 19 18 18 18 19 20 21 21 22 22 23 23 24 24 25 26 26 27 27 28 28 29 29 29 29
3 1 2 3 2 4 3 2 2 3 3 3 3 2 3 6 6 9 13 13 11 9 7 9 12 13 13 12 12 12 10 9 8 7 7 12 17 20 21 21 21 20 20 21 22 23 24 24 24 24 23 22 21 19 18 17 15 15 14 14 13 13 12 12 13 13 14 15 16 17 18 19 19 19 19 19 20 20 21 22 22 22 23 23 24 24 25 26 26 27 27 28 28 28 29 29 29
3 3 4 2 1 2 1 1 2 3 3 2 3 4 4 4 4 9 11 10 10 12 12 12 12 13 13 12 13 12 11 10 9 8 9 13 18 21 22 21 20 20 20 21 23 23 24 25 25 24 23 22 20 18 16 15 13 12 11 11 10 10 10 10 10 10 11 13 14 15 17 18 18 19 19 19 19 20 21 21 21 22 22 23 24 24 25 26 26 26 26 27 27 28 28 29 30
6 6 7 7 5 4 2 4 1 2 2 3 2 5 5 3 2 5 5 4 6 10 11 11 11 13 13 12 12 12 11 11 10 8 10 15 19 21 22 21 20 21 21 22 23 24 25 25 25 24 23 21 20 18 16 13 12 10 8 8 8 7 7 6 6 8 10 12 14 15 16 17 18 18 19 19 19 20 20 21 21 22 22 23 24 24 25 25 25 26 26 26 26 27 27 28 29
Wind_Direction
352 351 351 353 352 346 9 47 88 342 70 83 324 81 239 239 302 284 291 296 335 245 215 271 228 200 249 184 209 199 179 168 166 111 89 227 339 20 182 176 129 172 179 180 175 175 177 175 175 180 181 178 180 182 182 182 178 177 178 172 165 162 160 155 149 144 146 145 138 138 135 131 129 127 125 116 116 118 111 105 105 101 104 106 101 98 93 88 80 68 66 69 67 69 73 77 78
354 358 359 357 1 11 232 52 97 346 54 83 282 180 272 302 314 226 214 199 200 240 271 278 253 293 338 134 167 144 193 221 194 180 272 293 343 0 185 181 134 172 180 182 178 177 180 179 177 181 184 181 181 184 184 184 182 179 181 175 166 168 168 162 155 153 154 153 149 146 144 140 136 134 130 125 124 122 124 119 115 110 102 107 101 91 85 81 79 68 46 33 27 19 8 9 23
356 1 359 2 20 35 89 39 94 63 73 91 293 235 300 316 238 230 219 220 225 269 330 264 215 266 71 21 355 123 335 259 229 218 278 325 358 16 179 178 144 168 180 183 182 180 183 183 178 181 185 186 185 186 187 188 188 185 185 179 172 176 176 171 162 163 159 156 157 153 153 149 144 142 135 132 135 124 130 133 118 110 100 108 104 91 76 70 70 57 27 9 4 353 340 323 305
357 1 350 352 73 32 63 40 119 116 101 146 338 267 272 217 245 261 243 247 256 294 323 152 147 225 116 357 304 133 319 288 228 203 283 359 359 351 167 171 152 162 177 184 185 183 185 185 182 181 186 189 190 192 192 192 193 191 189 184 182 184 180 177 172 173 168 160 161 160 159 156 152 146 136 131 139 131 135 141 125 112 105 106 101 90 69 53 30 18 12 7 358 350 345 325 300
359 8 3 75 118 35 102 66 100 94 139 181 90 274 254 220 257 288 268 283 277 246 177 136 94 279 127 264 176 140 294 283 274 236 262 7 0 351 161 169 158 159 175 184 188 187 187 187 186 184 187 189 192 198 197 196 197 195 194 190 188 190 186 183 182 180 175 169 166 169 167 162 160 150 140 125 119 132 135 133 129 120 99 91 83 69 52 22 346 347 352 359 359 357 359 347 324
10 31 38 70 100 96 120 79 94 87 181 179 109 253 271 227 232 287 297 308 275 220 234 81 89 345 164 265 218 201 244 341 316 287 269 343 353 8 167 174 160 158 175 183 190 192 190 190 190 188 189 189 191 201 203 201 201 200 200 197 194 193 191 187 185 186 182 176 169 170 173 168 164 158 157 143 115 123 128 118 124 130 92 77 72 61 38 6 342 342 342 351 356 353 357 354 347
15 15 38 63 62 39 95 100 136 123 163 182 156 240 280 256 219 320 322 328 240 338 21 357 101 106 176 310 309 238 263 284 303 311 298 312 331 353 171 178 169 163 175 185 190 194 194 193 194 193 192 190 190 201 206 204 206 206 206 208 203 197 197 193 188 191 188 183 175 167 172 171 169 172 172 168 128 124 130 115 121 122 99 84 75 63 33 6 349 350 343 341 345 343 345 345 346
16 16 292 74 41 26 84 104 159 178 88 230 244 239 263 269 191 45 322 332 237 326 2 306 289 102 337 11 21 265 302 307 313 316 304 311 326 45 174 179 178 171 178 189 191 195 198 197 199 198 195 193 193 200 208 207 210 212 213 214 210 205 204 199 193 197 192 187 186 175 179 181 178 188 189 188 152 136 141 122 126 119 106 101 102 85 43 18 350 342 328 329 337 340 339 339 340
24 32 141 75 73 33 51 58 99 230 274 259 259 254 264 273 180 137 332 335 300 268 290 279 276 28 328 10 300 280 6 346 334 345 352 355 0 82 168 176 178 185 186 192 194 198 200 203 203 202 200 198 198 201 209 211 212 214 215 216 213 213 210 203 198 200 195 189 194 193 195 194 194 207 208 203 190 164 156 145 137 127 125 116 128 352 340 329 328 318 313 322 332 336 336 337 338
32 24 112 78 79 53 33 2 307 249 263 261 259 253 253 249 192 225 81 308 316 298 284 229 131 5 341 327 307 354 4 348 355 25 29 33 21 63 163 173 176 192 196 195 196 201 203 207 208 208 206 203 204 205 210 213 215 217 217 217 216 219 215 208 207 205 200 193 194 202 206 204 207 219 224 215 208 194 175 174 157 146 154 137 103 358 336 326 327 315 312 320 326 332 337 338 339
40 4 90 81 70 96 143 195 275 283 279 294 289 256 234 205 188 343 337 281 315 306 287 112 108 161 108 318 270 21 21 16 28 27 23 34 21 47 174 186 190 188 201 203 199 204 208 210 212 213 213 211 210 210 214 217 219 221 223 221 218 223 219 212 215 211 203 198 198 204 210 208 212 224 232 225 218 212 192 186 176 171 180 175 331 0 352 340 329 310 313 322 327 334 340 340 340
72 347 59 82 108 151 168 171 275 290 303 332 344 287 189 164 160 24 336 307 336 324 270 173 45 155 49 347 225 9 32 30 12 9 5 12 8 5 252 227 238 284 189 208 207 209 211 214 216 217 218 218 216 214 217 221 222 222 227 227 223 226 225 222 224 221 208 203 206 209 212 209 215 229 234 232 227 219 204 193 180 178 188 229 321 356 359 347 319 302 312 321 325 331 337 340 338
107 136 79 88 151 150 141 149 273 308 339 334 251 281 135 138 231 198 177 320 333 351 294 202 139 82 7 309 291 356 26 12 357 354 345 352 356 347 327 312 312 299 212 206 212 218 217 216 219 220 222 222 221 219 219 223 226 225 226 229 229 229 232 234 233 231 218 210 213 214 215 215 219 230 237 238 233 219 208 197 182 187 203 249 325 346 346 337 305 299 310 315 320 326 332 335 333
129 153 101 107 87 122 150 107 280 102 16 269 267 293 298 213 214 187 139 35 293 210 349 186 152 109 52 304 328 348 353 348 347 344 337 344 344 343 345 344 337 310 294 264 226 227 224 223 222 222 224 225 226 223 223 225 228 229 227 229 232 232 234 238 239 238 229 218 219 221 219 220 224 231 237 239 231 219 212 207 197 211 226 264 325 335 337 342 325 310 309 313 317 322 331 333 327
128 127 89 108 49 51 176 149 141 116 136 220 289 321 352 284 154 134 145 103 278 222 340 290 155 169 206 1 338 321 332 339 345 345 343 349 357 14 11 7 1 346 332 318 292 254 235 231 227 225 226 227 228 227 227 227 230 233 232 231 232 235 236 238 241 241 238 226 223 228 227 227 230 233 236 238 235 225 220 221 220 220 231 289 319 328 337 348 348 336 323 320 321 324 334 332 322
116 111 73 89 92 128 176 167 157 107 173 211 284 343 45 312 145 120 244 153 283 312 8 273 159 341 113 96 336 328 340 352 360 355 359 18 33 54 38 37 31 21 5 339 318 284 253 241 235 231 230 229 231 230 230 230 231 234 236 237 234 236 238 241 243 244 244 235 229 232 234 236 237 239 238 237 237 231 227 228 236 231 241 281 300 321 337 350 351 345 334 327 327 329 335 329 315
65 78 70 67 138 186 178 180 180 135 245 249 331 56 103 310 290 260 296 62 298 317 350 280 258 52 85 64 357 359 11 21 25 33 42 37 35 36 26 19 16 19 0 341 315 294 262 246 240 236 234 232 233 232 232 231 232 234 236 239 241 240 239 242 243 244 245 239 237 235 239 243 240 244 243 241 241 237 234 233 239 236 239 261 285 314 330 345 347 340 331 332 335 335 338 332 310
55 83 81 69 174 170 171 183 191 155 263 258 5 115 126 351 306 308 35 41 2 344 322 312 336 67 67 37 25 29 36 39 44 52 46 38 32 26 17 10 8 359 338 317 291 287 270 255 243 237 236 235 235 235 234 232 232 234 233 236 242 244 242 242 242 245 244 238 239 238 239 241 240 244 247 249 249 244 242 240 240 241 246 250 276 303 315 334 340 335 328 333 339 340 342 338 316
79 115 78 204 199 198 186 178 192 177 206 251 302 105 130 164 255 338 340 304 5 9 314 351 351 19 39 22 28 36 42 45 46 48 46 39 31 24 16 12 12 5 352 332 301 280 271 262 250 240 236 235 235 235 236 234 232 234 232 231 239 247 248 245 246 246 244 240 241 244 240 238 239 241 248 253 251 247 245 247 245 244 249 245 273 296 302 321 330 332 331 335 337 340 343 343 331
134 112 78 235 214 230 224 195 207 206 175 261 299 71 24 236 224 340 308 291 3 37 280 3 334 329 13 8 19 29 38 42 41 43 41 35 30 25 16 11 10 8 5 351 329 295 272 260 254 246 237 233 233 232 235 235 234 237 236 231 233 244 250 252 257 255 250 247 247 252 248 243 240 237 243 249 257 264 256 255 249 248 254 247 274 293 296 310 322 334 334 336 334 335 340 343 341
136 104 147 216 186 237 231 207 221 227 189 171 158 0 329 269 214 131 150 303 350 322 260 2 334 349 10 351 12 24 33 35 34 35 33 29 26 23 19 14 10 9 9 3 349 321 280 258 252 247 241 232 229 228 230 233 233 236 241 240 236 239 243 247 257 260 254 251 251 252 250 249 246 240 240 245 255 259 254 256 250 246 244 239 264 276 281 301 315 325 328 334 331 330 335 337 340
102 52 168 188 148 252 247 206 232 205 151 115 45 327 309 201 221 162 160 264 306 320 336 45 48 46 28 3 11 21 29 29 27 27 24 23 21 19 18 17 17 17 17 13 5 349 308 265 250 242 240 233 225 224 225 230 230 231 238 245 249 250 249 247 253 258 254 251 252 252 248 248 249 243 239 244 252 254 254 252 248 244 230 226 250 255 274 306 309 307 311 332 329 323 330 333 335
95 322 239 206 172 220 247 189 235 166 105 307 226 282 81 67 328 206 155 246 292 21 28 69 61 56 48 33 28 25 26 24 24 23 20 19 18 16 15 16 16 16 18 16 13 6 350 302 256 240 236 232 221 219 224 226 225 229 235 241 252 255 251 254 264 266 263 257 258 261 254 247 249 246 241 246 254 262 266 255 249 253 241 235 244 243 278 304 300 291 299 329 327 319 325 329 332
89 258 291 206 179 214 217 161 215 179 213 251 207 23 329 126 292 233 85 62 74 59 54 67 63 55 53 45 37 32 27 22 22 23 24 23 19 18 17 19 18 17 17 17 19 20 17 8 301 241 230 230 218 209 214 218 221 223 231 237 245 253 248 256 268 266 268 265 262 264 261 256 252 242 235 243 252 263 273 268 258 262 263 253 249 252 273 294 286 280 301 323 324 318 320 324 328
83 224 276 161 203 241 242 233 240 230 242 251 307 318 237 210 192 95 63 74 69 61 53 52 59 53 46 42 36 30 27 22 17 18 23 24 22 25 26 24 25 24 21 18 21 27 29 30 30 79 208 221 212 197 191 197 215 214 221 236 240 263 263 264 278 287 290 285 276 269 263 266 262 243 229 234 255 275 273 271 264 263 262 248 242 250 258 280 285 284 296 312 319 316 316 319 322
202 182 242 267 283 292 286 253 229 224 239 172 241 289 152 225 167 80 59 99 91 59 55 40 49 50 42 39 34 29 28 22 14 14 19 22 25 26 26 26 28 28 25 24 25 30 36 41 46 58 96 182 189 170 163 175 195 201 210 227 229 267 270 267 292 309 314 311 306 306 288 273 270 257 242 241 272 290 280 273 269 271 265 244 234 245 255 272 286 288 290 301 313 311 311 314 315
190 169 240 257 295 299 278 261 239 215 239 173 219 280 77 273 37 105 53 88 108 66 53 36 51 52 44 42 37 33 31 24 18 20 21 21 23 20 19 23 27 30 31 33 35 38 44 50 55 59 71 90 128 130 134 155 167 169 174 190 205 237 132 348 310 323 344 346 327 339 337 297 281 279 276 275 282 291 290 279 274 279 276 255 247 255 261 269 279 287 293 300 303 303 308 311 312
120 15 293 296 321 305 306 319 296 267 238 177 183 226 14 342 44 119 333 35 93 82 59 38 50 45 40 45 41 39 34 28 26 28 23 16 16 14 16 20 24 31 36 39 44 50 56 60 62 65 73 81 93 106 116 121 122 123 118 115 132 160 129 103 36 16 3 359 345 342 333 313 309 316 313 300 288 291 292 284 282 286 282 272 270 269 263 266 276 280 285 293 295 301 309 310 311
65 34 333 310 345 333 326 348 315 351 45 180 163 187 359 0 358 349 12 95 91 76 58 36 43 33 34 39 38 43 33 30 31 29 23 18 20 20 22 25 29 36 42 48 54 60 66 70 72 75 80 88 95 102 109 110 109 111 109 102 105 114 109 105 82 55 35 20 9 355 322 307 316 317 314 308 291 282 284 285 291 291 284 273 270 269 265 272 281 280 281 286 292 304 312 313 312
291 40 38 316 352 332 312 356 324 347 69 289 141 283 318 308 289 325 358 194 84 54 44 28 30 22 28 30 33 39 31 30 29 26 24 23 26 28 29 34 41 45 50 58 62 67 75 79 82 86 89 93 98 101 103 103 101 97 93 89 86 86 84 82 78 69 61 56 40 33 25 353 357 340 310 309 297 285 286 292 292 286 284 278 272 272 275 283 286 285 287 288 292 299 306 309 306
336 11 42 0 357 285 299 346 345 0 37 356 84 231 270 244 281 340 340 268 104 71 35 21 22 22 26 28 32 33 29 30 28 27 27 28 30 33 36 40 50 56 60 65 68 73 81 85 87 91 95 97 98 99 97 95 95 91 87 84 81 80 79 77 76 74 71 71 65 59 57 50 42 35 13 349 332 325 327 332 327 318 314 309 302 296 295 296 293 290 289 287 288 290 292 295 296
30 332 309 349 161 269 309 337 24 68 324 14 100 214 276 214 269 343 351 18 91 93 48 29 21 22 29 28 32 30 24 26 28 28 28 30 33 36 40 46 57 64 69 73 76 81 86 89 90 92 95 97 97 98 98 97 96 94 89 85 83 81 80 79 78 77 75 73 72 71 68 67 64 60 57 53 52 49 42 38 27 14 2 345 334 328 321 313 303 294 287 285 288 288 289 290 293
358 66 250 272 190 276 321 322 3 20 303 2 58 221 285 165 247 332 6 40 81 97 73 43 31 28 37 33 34 32 21 19 20 20 22 29 34 37 44 51 61 68 75 81 86 89 91 93 95 94 94 97 98 98 99 98 97 94 92 90 86 84 82 81 80 78 76 74 72 71 70 69 69 67 66 62 59 58 54 47 38 30 22 13 8 3 357 344 328 314 307 305 302 298 295 295 299
307 24 230 250 212 216 305 289 332 15 63 356 16 276 253 158 149 339 15 39 82 93 75 51 47 35 39 38 39 34 26 23 10 8 14 24 33 40 49 55 63 70 77 85 91 94 96 98 100 99 98 99 100 100 100 98 96 94 92 89 86 83 81 80 79 77 75 73 71 69 67 67 67 67 66 64 61 57 53 48 45 41 37 37 38 33 29 22 11 360 347 339 328 320 314 312 314
188 177 199 253 244 220 258 259 280 4 15 345 5 299 265 206 113 20 19 42 88 95 90 79 60 43 46 42 46 38 30 30 10 8 15 25 35 44 54 61 65 72 78 84 91 96 98 100 103 105 104 104 103 103 102 101 99 95 92 90 86 82 80 77 76 74 72 70 69 67 67 67 66 66 64 62 60 58 56 55 54 53 50 51 53 51 46 38 31 25 16 7 357 350 345 338 333
160 168 153 182 231 246 233 237 263 331 6 304 267 264 271 258 83 24 11 44 92 106 95 78 52 43 46 40 43 40 37 27 12 18 27 34 41 49 58 64 69 75 80 85 92 96 96 98 103 105 105 107 107 107 105 104 101 97 94 91 85 81 79 77 75 74 74 72 71 69 67 66 64 62 61 59 59 60 61 60 58 55 53 52 52 53 49 45 41 36 32 27 18 15 10 2 355
126 129 134 183 220 258 237 232 292 330 125 274 255 257 274 270 298 340 314 45 74 66 57 52 41 42 36 40 37 30 40 27 25 34 39 44 50 56 62 68 75 78 81 86 92 94 93 95 100 99 101 107 110 110 109 106 104 100 95 91 87 83 81 80 77 75 75 73 72 70 68 67 65 64 63 62 62 63 63 61 58 56 55 54 54 55 52 50 47 43 41 35 26 21 19 15 9
110 130 171 229 222 247 258 220 315 336 178 266 353 301 273 266 288 334 337 58 48 19 54 61 48 56 36 43 30 10 27 20 37 40 40 47 52 57 64 69 74 76 76 82 89 91 93 95 96 94 96 102 104 105 107 104 102 101 97 94 92 88 84 82 79 76 76 75 73 71 70 69 68 67 66 65 65 64 63 62 61 60 59 56 57 56 53 51 48 44 40 37 33 28 25 22 16
110 118 165 244 228 251 289 304 341 3 182 258 21 265 265 266 330 355 11 68 55 358 75 123 100 90 50 41 19 12 31 24 36 35 36 44 50 57 65 69 74 76 78 83 88 92 94 94 94 93 95 98 99 101 103 101 101 100 99 97 95 91 86 84 82 80 79 77 74 72 71 70 68 68 67 66 66 64 63 63 61 60 58 56 55 54 51 50 47 43 39 37 36 33 33 30 24
154 149 173 236 220 188 273 291 329 0 39 259 191 277 269 249 12 2 30 113 116 62 76 73 72 102 51 1 351 12 33 32 33 27 30 41 49 58 64 69 76 81 84 87 91 95 97 96 97 98 98 99 100 101 102 103 103 102 100 98 96 93 88 87 86 82 80 78 76 75 73 71 71 70 69 67 67 66 65 63 62 60 58 56 54 52 50 47 44 42 39 37 36 35 36 34 30
228 202 204 223 202 207 234 264 324 348 3 1 144 309 292 214 205 229 179 159 140 81 94 83 45 49 27 6 15 22 35 32 31 21 18 32 47 57 64 72 77 81 84 86 92 99 102 104 106 106 107 106 106 105 106 107 107 105 104 100 97 93 88 85 83 79 78 78 76 75 74 73 73 72 71 70 69 69 68 67 65 64 62 59 56 55 53 50 47 44 42 40 39 38 36 33 31
274 228 211 217 207 210 227 356 23 10 331 304 143 260 288 300 240 209 182 193 192 70 112 136 141 67 104 115 78 45 56 52 43 30 19 37 54 64 70 75 78 80 84 88 94 101 105 108 110 112 113 113 113 112 112 113 111 109 107 101 95 90 84 79 79 78 78 78 77 77 76 74 73 72 71 70 69 69 68 67 66 65 63 61 58 57 56 53 51 49 46 44 42 40 37 35 30
277 248 207 208 196 181 177 142 111 161 253 301 86 191 259 321 310 229 174 194 213 238 187 198 214 193 178 180 177 140 106 92 74 53 53 62 67 72 74 77 82 85 89 94 98 101 105 106 107 109 111 113 114 115 115 115 111 107 102 97 93 91 88 84 84 84 83 82 81 79 77 74 73 71 70 69 67 67 66 65 64 63 61 59 57 55 54 53 51 50 48 47 45 41 40 40 34
231 248 161 168 173 178 176 160 172 223 249 323 28 148 226 296 287 264 160 197 244 241 231 232 214 206 203 199 194 172 161 145 139 89 69 79 79 80 83 86 92 95 97 100 101 102 104 106 106 107 108 109 110 111 111 109 105 101 98 96 94 93 93 91 89 87 86 85 82 79 77 75 72 70 69 67 66 64 63 62 61 61 60 58 56 54 53 51 49 48 47 46 45 43 43 43 39
239 188 118 133 152 161 148 143 178 271 1 288 289 134 205 264 268 309 62 244 254 224 210 216 205 205 202 197 198 181 175 175 166 163 100 94 95 96 100 101 103 105 105 104 105 106 107 107 108 108 107 107 107 107 105 103 102 101 100 99 97 95 95 94 92 89 87 85 82 79 76 74 72 69 67 65 63 61 59 58 57 56 56 54 53 52 51 48 46 44 42 42 41 41 42 40 38
197 129 99 83 78 85 93 116 128 64 88 242 237 182 200 267 278 291 77 255 251 213 200 208 195 200 202 197 194 179 178 178 168 165 140 124 120 117 116 115 113 111 110 109 109 110 110 110 110 108 107 107 106 106 105 103 103 102 101 101 100 98 97 95 93 89 86 84 81 78 75 73 71 68 66 64 61 59 57 55 53 52 51 50 48 46 44 42 40 39 37 36 36 36 36 34 33
142 113 79 62 45 48 56 66 89 71 269 248 233 198 193 256 273 235 202 231 215 164 177 196 185 202 207 200 191 179 181 178 173 169 152 141 135 131 127 123 119 117 116 115 114 114 114 113 112 109 108 108 108 107 106 104 103 101 100 100 100 99 97 95 91 86 83 81 78 76 73 71 68 66 64 61 58 55 53 51 49 48 47 44 42 40 38 36 34 33 31 29 28 29 27 25 24
110 94 94 90 5 14 29 359 49 153 249 256 263 219 186 225 253 238 228 241 200 166 176 182 183 199 202 194 187 181 185 181 180 178 159 152 146 142 138 130 126 125 123 121 119 119 118 116 115 113 110 110 109 107 106 104 102 101 100 99 97 96 94 91 87 83 79 77 75 73 71 68 66 63 60 57 53 49 47 45 43 41 39 37 35 33 31 29 27 25 24 23 21 21 20 17 15
87 96 113 114 345 3 352 295 237 223 245 263 291 198 197 231 247 252 241 228 217 206 191 179 181 190 193 186 181 181 188 184 183 184 172 168 162 156 149 140 135 132 128 126 125 124 123 121 119 116 113 112 111 108 106 103 101 99 98 97 95 92 89 86 83 80 77 74 73 71 68 65 62 59 55 52 48 44 42 39 37 35 33 31 28 26 23 20 19 17 16 15 13 12 12 10 9
154 148 140 137 128 137 247 258 259 255 249 293 299 222 219 263 265 261 244 223 225 236 254 198 184 185 184 179 175 182 190 188 188 187 183 183 175 167 158 149 144 139 135 133 131 129 127 125 123 119 117 115 113 110 107 104 101 99 97 95 93 91 88 84 80 78 75 71 68 66 63 59 56 52 48 46 41 38 36 34 32 31 28 26 23 21 19 16 14 12 10 10 8 6 5 3 1
177 161 136 147 159 171 218 217 212 248 257 306 299 214 189 205 247 273 264 279 289 272 280 276 190 178 166 161 169 184 194 192 192 190 191 190 181 172 165 158 153 148 145 141 137 135 133 130 127 124 122 120 116 113 110 106 104 101 99 96 92 89 85 82 79 75 71 67 63 60 57 52 49 46 42 39 34 30 29 27 26 24 22 20 18 16 14 12 10 9 7 7 5 2 0 359 356
202 128 115 171 189 151 163 196 176 181 285 281 236 224 222 197 222 297 303 303 304 312 337 148 179 164 149 166 185 192 199 194 191 193 194 191 183 177 172 167 163 157 152 149 144 142 138 135 132 129 127 125 121 117 113 110 107 103 99 95 90 87 83 80 76 71 65 61 56 53 49 46 42 38 35 31 27 24 22 21 19 18 16 15 12 11 9 7 6 5 3 3 1 359 357 356 353
151 139 174 213 182 117 115 239 70 80 258 256 191 223 285 316 274 302 17 322 285 309 341 175 182 168 167 190 198 196 200 193 192 196 192 189 184 183 181 174 171 166 161 156 151 148 145 142 139 135 132 129 125 121 117 113 110 105 100 96 90 86 81 75 71 66 61 57 52 48 44 40 36 31 27 24 21 18 15 14 12 10 9 7 6 4 3 2 1 360 359 358 357 355 353 353 351
126 179 207 182 125 93 107 227 352 48 244 268 209 209 228 165 240 296 28 275 247 224 208 180 178 181 191 202 201 200 199 190 193 197 192 189 185 185 186 182 178 174 168 162 156 153 150 148 146 142 138 135 129 124 120 116 112 107 102 97 91 84 79 73 68 63 58 53 48 44 38 34 30 24 20 17 13 11 9 7 5 3 2 1 360 358 357 357 356 355 355 354 353 351 349 349 348
128 187 183 113 145 168 107 180 220 211 243 285 288 230 221 193 204 204 202 224 221 197 187 190 191 195 200 202 201 201 195 189 195 195 191 187 186 188 189 187 184 180 174 167 162 158 155 154 152 147 143 138 133 129 125 120 114 109 104 98 91 84 78 72 66 58 52 47 42 37 32 28 23 16 12 9 6 4 3 2 1 360 359 357 357 356 355 354 354 353 352 351 349 348 346 346 345
63 110 118 84 153 174 160 165 171 184 222 280 295 275 239 224 203 183 196 209 198 176 186 203 203 202 201 198 197 198 195 194 194 190 191 188 188 192 192 189 187 182 178 172 167 164 161 159 156 152 148 143 139 135 130 125 120 114 109 102 94 87 79 69 61 52 43 39 36 30 26 21 16 10 6 3 1 0 0 360 359 358 357 356 356 355 354 354 353 352 350 349 347 345 344 343 342
135 148 165 174 129 124 186 222 121 140 177 215 283 288 257 246 209 184 198 207 187 179 190 203 206 205 205 201 198 196 193 194 193 187 187 187 188 193 194 192 188 183 180 176 173 170 167 165 163 159 155 151 147 142 137 133 129 123 116 109 100 89 77 64 54 44 35 33 29 23 20 16 10 6 2 0 359 359 359 359 358 357 356 356 355 355 354 353 352 350 349 348 346 344 342 341 339
167 178 184 185 175 136 178 246 195 113 185 182 220 273 258 235 207 189 201 210 192 192 195 199 204 203 204 205 200 196 194 195 194 186 181 184 188 192 193 192 190 186 184 181 179 177 174 171 168 165 162 158 153 149 147 145 141 136 129 117 105 89 76 58 44 36 28 25 20 15 13 9 4 2 359 358 357 358 358 357 356 356 355 355 354 354 354 352 351 349 347 346 345 343 341 339 337
Height
817 817 816 815 815 814 817 819 830 842 845 859 865 859 854 854 854 850 847 844 845 842 842 842 842 841 840 840 840 839 839 840 840 846 849 834 825 827 828 828 829 828 830 831 833 835 837 838 840 841 843 844 845 846 848 849 850 851 852 853 854 855 855 856 857 858 859 860 860 861 862 862 863 863 864 864 864 865 865 865 865 865 865 866 866 866 866 866 866 866 866 866 866 866 866 866 866
817 817 815 815 815 814 823 825 837 851 850 862 865 860 855 854 853 845 843 843 841 841 842 843 842 842 840 839 839 839 838 836 834 836 833 826 827 828 827 829 829 829 830 831 833 835 837 838 840 842 843 844 846 847 848 849 850 851 852 853 854 855 856 857 858 858 859 860 861 861 862 862 863 864 864 864 865 865 865 865 866 866 866 866 866 866 866 867 867 866 867 867 867 867 867 867 866
816 817 816 815 816 817 825 827 840 855 856 862 859 855 856 850 846 843 843 841 840 842 843 842 842 841 839 840 839 839 838 833 833 832 829 826 827 827 828 829 829 830 830 832 833 835 837 838 840 842 843 844 846 847 848 849 851 852 853 854 855 856 857 858 858 859 859 860 861 862 862 863 863 864 864 865 865 865 865 866 866 866 867 867 867 867 867 867 867 867 867 867 867 867 867 867 867
817 816 816 815 819 821 827 834 845 853 859 869 860 851 852 847 843 843 842 841 842 842 841 841 840 839 838 840 838 839 837 831 830 830 829 827 827 827 828 829 830 831 831 833 834 835 837 839 841 842 844 845 846 847 849 850 851 852 853 854 855 856 857 858 859 859 860 861 861 862 863 863 864 864 865 865 865 865 866 866 866 867 867 867 867 867 867 867 868 867 867 867 867 867 867 866 866
816 816 816 814 821 827 833 847 853 851 856 864 857 850 848 846 844 842 841 841 843 842 840 840 839 838 838 838 837 838 835 831 829 828 829 828 828 828 828 829 831 831 831 833 834 836 837 839 841 842 844 845 847 848 849 850 851 852 853 854 855 857 857 858 859 860 860 861 862 862 863 863 864 864 865 865 865 866 866 866 867 867 867 868 868 868 868 868 868 868 868 867 867 867 866 866 866
817 817 816 814 823 829 835 848 852 851 853 854 850 848 846 845 846 843 841 840 842 842 841 840 839 839 838 836 835 834 831 831 829 828 828 828 828 828 829 830 830 832 832 834 835 836 837 839 841 842 844 845 847 848 849 850 851 853 854 855 856 857 858 859 859 860 860 861 862 863 863 864 864 864 865 865 866 866 866 867 867 867 868 868 868 869 869 868 868 868 867 867 867 867 866 866 866
816 817 819 820 828 833 839 848 851 852 854 855 850 846 845 844 848 846 842 841 840 841 841 840 840 840 839 837 834 831 830 830 829 829 829 828 829 828 829 830 831 832 833 834 835 836 838 839 840 842 843 845 846 847 849 850 851 852 854 855 856 857 858 859 860 860 861 861 862 863 863 864 864 865 865 865 866 866 866 867 867 868 868 869 869 869 869 869 869 868 868 867 868 867 867 866 866
816 819 825 826 837 844 849 853 854 856 855 859 855 848 846 844 850 847 842 842 841 841 840 840 841 840 840 840 838 831 830 830 829 829 828 828 829 829 829 830 831 832 833 834 835 836 838 839 840 842 843 844 846 847 848 850 851 852 853 855 856 857 858 859 860 861 861 862 862 863 864 864 865 865 865 865 866 866 867 867 867 868 868 869 869 870 870 870 869 869 868 868 868 868 867 867 866
816 820 827 830 842 851 855 857 857 859 856 856 854 849 847 847 851 846 842 843 842 843 840 840 841 840 840 840 838 832 830 831 830 829 828 829 829 829 830 831 832 833 834 834 836 837 838 839 840 842 843 844 845 847 848 849 850 851 853 854 855 856 857 859 859 860 861 862 863 863 864 864 865 865 865 865 866 866 867 867 867 868 869 869 869 870 870 870 870 869 868 868 868 868 867 867 866
820 823 830 836 845 852 856 859 857 856 853 853 852 849 847 848 849 846 844 842 843 842 839 842 841 840 841 840 837 833 832 831 830 829 829 829 829 830 831 831 832 833 834 835 836 837 839 840 841 842 843 845 846 847 848 849 850 851 852 853 855 856 857 858 859 860 861 861 862 863 863 864 865 864 865 865 866 866 866 867 867 868 868 869 869 870 870 870 870 869 868 868 868 868 867 867 866
824 830 833 839 848 853 855 856 854 854 853 853 851 847 848 849 847 845 844 842 844 842 839 841 840 840 841 840 838 834 832 831 830 830 830 830 830 831 832 832 833 834 835 836 837 838 839 840 842 843 844 845 846 847 848 849 850 852 852 853 854 855 856 857 858 859 860 861 862 863 863 864 864 864 865 865 865 866 866 867 867 867 868 868 869 869 870 869 869 868 868 868 868 868 867 867 866
827 837 836 839 852 855 857 856 853 854 852 850 846 844 849 849 845 843 843 842 843 842 839 839 838 839 840 840 837 833 832 832 832 832 831 832 831 832 832 833 834 835 835 836 837 838 840 841 842 843 844 845 846 848 849 849 851 852 853 854 855 855 856 857 858 859 860 860 861 862 863 864 864 864 865 865 865 866 866 867 867 867 868 868 869 869 869 869 868 868 868 868 868 867 867 867 866
830 842 835 842 865 864 860 859 857 857 851 848 845 846 850 847 842 842 843 842 843 841 838 838 838 838 840 840 836 834 834 833 834 833 832 832 832 833 833 833 834 835 835 836 837 838 839 840 842 843 844 845 846 847 848 849 850 851 853 853 854 855 856 857 858 859 859 860 861 862 862 863 863 864 864 864 865 865 866 866 867 868 868 868 869 869 869 869 869 868 868 868 868 867 867 866 866
832 840 836 852 878 871 861 858 856 856 851 848 845 846 848 844 842 843 843 842 842 840 837 837 837 838 841 840 837 836 836 835 834 833 833 833 833 833 833 834 834 835 835 836 837 838 839 840 841 842 843 844 845 847 847 849 849 851 852 853 854 855 856 857 858 858 859 860 860 861 862 862 863 863 863 864 864 865 866 866 867 868 868 868 869 869 869 869 869 868 868 868 867 867 867 866 866
833 840 842 854 870 866 861 860 857 854 850 847 846 847 845 843 844 843 842 842 840 837 837 837 837 839 841 841 840 839 837 836 834 833 833 833 833 833 833 833 834 834 835 836 837 837 838 839 840 841 842 843 844 845 847 848 849 850 851 852 853 854 855 856 857 858 859 859 860 861 861 862 862 862 863 863 864 865 866 866 867 867 868 868 868 868 869 869 868 868 868 868 867 867 867 866 866
834 837 842 849 859 861 858 862 863 856 848 846 848 849 844 842 845 842 841 842 839 837 838 837 837 839 839 841 843 841 839 836 835 834 833 833 832 833 833 833 833 834 834 835 836 836 837 838 839 840 841 842 843 844 845 847 848 849 850 851 852 853 855 856 857 858 858 859 859 860 861 861 861 862 862 863 864 864 865 866 866 867 867 868 868 868 868 868 868 868 868 868 867 867 867 866 866
833 834 840 846 856 857 854 858 859 850 844 844 848 848 844 844 844 842 843 842 840 840 839 837 837 839 840 843 844 841 839 836 835 834 833 832 832 832 832 832 833 833 834 834 835 835 836 836 837 838 839 840 841 843 844 845 847 848 849 850 852 853 854 855 856 857 858 858 858 859 860 861 861 861 862 862 863 864 865 865 866 867 867 867 867 868 868 868 868 868 868 868 867 867 866 866 866
833 839 844 847 854 852 847 849 848 846 843 841 845 848 845 844 843 841 842 841 842 842 839 838 837 840 843 844 843 841 838 836 835 833 833 833 832 832 832 832 832 832 833 833 834 834 834 835 835 837 838 839 840 841 842 844 845 847 848 850 851 852 853 854 855 856 856 857 858 858 859 860 860 861 861 862 863 863 864 865 866 866 866 867 867 867 867 867 868 868 868 867 867 867 866 866 865
837 846 846 846 850 846 843 844 843 844 842 841 844 849 847 844 844 842 841 840 842 842 839 839 838 839 842 843 842 841 839 836 835 835 835 835 835 835 834 833 832 832 832 832 832 833 833 833 833 834 836 837 838 840 841 842 844 845 847 849 850 851 852 853 854 855 855 856 857 858 858 859 860 860 861 862 862 863 864 864 865 866 866 866 866 866 867 867 867 868 867 867 867 866 866 865 865
841 845 843 844 846 844 845 844 841 842 843 842 843 848 847 844 845 843 842 841 841 842 840 840 839 839 844 845 844 842 840 839 838 838 838 838 838 838 837 836 834 833 832 832 831 831 831 831 831 832 833 835 837 838 840 841 843 844 846 848 849 850 850 852 853 853 854 855 856 857 858 858 859 859 860 860 861 862 863 864 864 865 866 866 866 866 866 866 867 867 867 867 866 866 866 865 865
842 842 839 844 847 844 842 843 842 843 846 844 844 848 845 844 846 843 843 843 842 842 842 843 842 844 847 847 847 845 842 841 840 840 840 840 840 840 839 838 837 835 834 832 831 830 829 829 829 830 831 833 834 836 838 840 841 843 845 846 848 849 849 850 852 852 853 854 855 856 857 857 858 859 859 859 860 861 862 863 863 863 864 864 865 866 866 866 867 867 867 867 866 866 865 865 865
840 843 842 844 848 843 839 843 844 844 846 845 845 845 844 845 845 843 843 843 844 847 848 848 849 850 851 850 849 847 845 844 843 843 842 842 841 841 839 838 837 835 834 832 830 829 828 827 827 828 829 831 832 834 837 838 841 842 844 846 847 848 849 850 851 851 852 853 854 854 855 856 857 857 858 859 860 861 861 861 862 862 862 863 864 864 865 866 866 867 867 867 866 866 865 865 865
838 843 846 846 847 842 840 843 843 844 844 842 843 844 846 845 843 844 844 845 850 854 854 853 853 854 854 852 851 849 848 847 847 846 846 845 843 842 840 839 837 835 834 832 830 829 827 826 826 826 828 829 831 832 835 837 839 842 843 845 846 847 848 849 850 851 851 852 853 854 854 854 855 856 857 858 859 860 860 861 861 861 862 862 862 863 864 865 865 865 866 866 866 865 865 865 865
839 841 843 845 848 843 841 843 843 844 841 840 843 844 845 842 843 845 847 852 857 857 856 855 855 855 854 853 852 851 851 850 850 849 848 847 845 844 842 840 839 837 835 833 831 829 827 826 825 825 826 828 830 831 834 836 838 840 842 844 845 846 846 848 849 850 851 852 853 853 853 853 854 854 855 857 858 859 859 860 861 861 861 862 862 862 863 863 864 864 865 865 865 865 865 865 865
841 841 841 844 845 841 841 844 842 842 840 841 843 842 843 842 842 844 849 856 858 857 856 856 856 855 854 853 853 853 852 852 851 850 849 848 847 845 843 841 839 836 834 833 831 829 828 826 825 825 826 828 829 831 833 835 837 839 841 842 843 844 846 847 848 849 850 851 851 852 852 853 853 853 853 855 857 858 858 859 859 860 861 861 861 862 862 862 863 864 864 864 865 865 865 864 864
841 841 842 841 841 839 840 840 839 840 840 840 839 838 842 844 843 845 853 857 857 858 857 858 857 855 856 856 855 854 853 853 852 851 850 848 847 844 843 841 839 837 836 834 832 830 829 827 827 826 827 828 829 831 833 835 837 839 841 842 842 843 845 846 846 847 848 849 850 850 851 852 853 853 853 854 856 856 857 857 858 859 859 860 861 862 862 862 862 862 863 863 864 864 864 864 864
842 842 842 840 840 841 839 836 837 840 839 839 837 836 842 844 842 845 853 857 857 857 858 859 858 857 858 857 857 856 854 854 853 852 849 847 846 845 844 842 840 839 837 835 833 832 831 829 829 828 828 829 831 833 835 837 838 840 841 842 843 843 844 845 845 846 846 847 848 849 850 851 852 852 853 854 855 855 856 856 857 858 858 859 860 861 861 861 861 861 862 862 863 863 863 863 863
843 842 840 839 839 838 837 835 837 838 835 838 839 837 842 843 841 846 853 856 856 856 858 860 859 859 860 858 858 857 856 855 854 852 850 849 848 847 846 844 842 840 838 836 835 834 832 831 831 831 831 832 833 835 837 838 839 840 841 842 843 843 844 844 844 845 845 846 846 847 848 850 851 851 852 853 854 855 855 855 856 857 857 858 859 860 860 860 860 860 861 861 861 862 862 862 862
843 843 841 839 837 834 836 837 839 838 833 838 839 835 842 846 845 850 854 856 857 854 856 860 861 861 860 859 859 857 857 856 854 853 853 853 851 850 848 846 844 842 840 838 837 835 834 833 833 833 833 834 835 836 837 838 840 841 841 842 843 843 844 844 844 845 845 845 845 846 847 848 849 850 851 853 854 855 855 855 856 857 857 857 858 858 859 859 859 859 859 860 860 861 861 861 861
843 846 846 844 841 837 838 840 840 837 836 840 838 836 844 850 851 853 855 857 854 851 856 862 862 863 861 860 860 858 858 857 856 856 855 854 852 851 849 847 845 843 842 840 838 837 835 835 834 834 835 835 836 837 838 839 840 841 841 842 843 844 844 844 845 845 846 846 846 847 847 848 848 850 851 852 853 853 854 855 856 857 857 857 857 857 858 858 858 858 858 859 859 859 860 860 860
845 848 850 854 851 840 837 843 841 835 837 839 837 839 845 851 853 854 857 857 851 851 859 864 863 864 863 862 861 860 859 858 858 857 856 855 853 851 850 848 846 844 843 841 840 839 837 837 836 836 836 836 837 838 839 840 841 842 843 844 844 845 845 846 846 846 847 847 847 848 848 849 849 850 851 852 853 853 854 855 856 856 856 856 856 857 857 857 857 857 858 858 858 858 859 859 859
850 849 850 859 858 844 838 844 844 838 838 837 837 839 843 849 855 856 860 858 853 855 863 865 865 865 863 863 862 860 860 859 858 858 856 855 853 852 850 848 846 845 843 842 841 841 839 839 838 838 837 837 838 839 840 840 841 843 844 845 846 847 847 848 849 848 849 849 849 850 850 850 851 851 852 853 853 854 855 855 855 856 855 856 856 857 857 857 857 857 858 857 858 858 858 858 858
856 854 850 855 857 852 844 842 846 845 839 837 838 840 840 847 858 861 862 862 858 859 865 866 865 865 865 864 863 862 861 860 859 859 857 856 855 853 851 849 848 846 845 843 842 842 841 840 840 840 840 840 840 841 842 842 843 844 845 846 847 848 849 850 851 851 851 851 851 851 851 851 852 853 853 854 854 854 855 854 855 855 855 856 857 856 857 857 858 857 857 857 857 858 858 858 858
855 860 856 854 856 856 848 840 844 846 840 839 841 841 838 846 860 864 863 864 861 860 864 866 866 866 865 864 864 864 863 862 861 860 859 858 856 855 853 851 850 848 847 845 844 843 842 842 841 841 842 842 842 843 843 844 845 845 846 847 848 849 851 852 852 852 852 852 852 852 852 852 853 854 855 854 854 855 854 854 856 856 856 857 857 857 857 858 858 858 857 857 857 858 858 857 857
844 853 853 853 855 855 853 845 843 844 839 840 844 842 838 843 857 863 864 866 862 862 866 866 866 866 865 865 865 865 864 864 864 862 861 860 857 856 854 852 851 850 848 847 846 845 844 844 843 843 843 843 843 844 845 845 846 847 848 848 849 850 852 853 852 852 853 853 853 853 854 854 855 855 855 854 854 855 856 857 859 859 859 859 858 857 857 858 858 858 857 857 858 858 858 857 857
841 846 847 847 847 848 852 848 846 847 842 840 842 841 837 838 848 859 865 866 864 865 866 865 866 866 865 865 865 865 865 864 865 864 862 861 858 857 855 854 853 851 850 849 848 847 846 846 846 846 845 845 845 845 845 846 846 848 849 849 850 852 853 853 854 854 854 854 855 856 855 856 856 855 855 855 855 856 858 859 860 860 861 861 858 857 857 858 858 858 858 859 859 859 858 857 857
845 848 848 848 847 844 846 846 847 850 844 841 843 842 839 838 846 859 864 863 862 863 863 864 866 866 865 865 865 865 865 865 865 864 862 861 859 858 857 855 854 852 851 850 849 848 848 848 848 849 849 848 848 847 847 846 847 848 849 850 852 854 855 855 856 856 856 857 857 857 856 857 857 856 856 857 857 858 859 859 860 860 861 861 859 859 860 859 858 859 859 859 859 859 859 858 858
845 848 848 850 852 847 845 847 849 850 846 844 848 846 838 836 847 860 862 858 860 864 864 866 867 866 866 866 866 866 865 865 864 863 862 861 860 859 858 856 855 854 853 852 851 850 850 849 850 851 851 851 850 850 849 848 849 849 849 851 853 855 856 857 858 858 859 859 858 858 858 858 858 857 858 858 858 859 859 860 861 861 862 861 860 861 862 861 860 860 859 858 859 859 860 859 859
847 850 851 851 852 849 847 849 853 852 846 843 849 848 836 839 854 863 863 862 865 869 867 868 868 867 867 867 867 867 866 865 864 863 862 862 862 861 859 858 856 856 855 855 854 852 851 851 852 853 853 853 853 853 851 851 851 852 852 854 855 855 857 859 859 860 860 860 860 860 860 860 860 859 859 859 859 860 860 861 861 862 862 862 862 863 863 862 861 861 860 859 860 860 860 860 859
849 850 851 850 851 849 844 847 852 852 851 848 849 848 837 843 859 865 866 867 868 871 869 869 870 867 868 869 869 869 867 866 865 865 864 864 863 862 860 859 858 858 857 856 855 853 853 853 854 855 855 856 857 856 854 854 854 853 854 856 857 857 860 861 861 861 861 861 861 862 862 862 862 861 861 861 861 861 861 862 863 863 863 864 864 864 863 863 862 861 861 861 861 861 861 861 861
850 850 849 846 847 847 842 847 851 851 855 853 850 847 836 837 847 854 865 869 866 869 869 868 869 869 869 870 870 870 869 868 868 867 866 865 864 863 862 861 860 859 858 857 857 855 854 855 856 856 857 858 859 859 858 857 856 855 856 857 859 859 861 862 862 863 864 863 863 864 864 865 864 864 864 863 863 863 863 864 864 865 865 865 866 865 865 864 864 863 863 862 862 862 862 863 862
848 844 843 841 840 842 844 849 850 850 851 851 852 846 833 830 834 846 863 866 864 866 866 865 866 867 868 868 869 869 869 869 869 868 868 866 865 864 864 863 862 861 860 860 859 858 856 856 857 857 858 859 860 861 861 860 859 858 857 857 858 859 861 864 865 866 867 866 867 867 867 867 867 867 866 866 866 866 866 866 866 866 866 867 867 867 867 866 865 865 865 864 863 863 863 863 863
846 840 839 841 842 844 846 848 849 849 848 853 858 849 836 827 825 844 864 863 863 865 863 864 865 865 866 866 867 867 867 868 867 868 867 866 866 865 865 864 863 863 863 862 862 861 860 859 859 859 860 861 861 862 863 863 861 860 858 857 859 860 862 867 869 869 869 869 869 869 869 869 869 869 869 869 869 868 868 868 868 868 867 868 868 868 868 867 867 867 867 866 865 865 864 864 865
841 842 842 842 842 843 846 847 847 848 848 853 856 850 847 837 829 849 864 858 859 864 863 864 864 864 865 865 866 867 867 867 867 867 866 866 866 866 866 865 864 864 864 864 864 864 863 862 862 862 862 863 863 864 864 864 863 862 861 860 861 863 865 869 871 871 871 872 871 871 871 871 871 871 871 871 871 871 871 870 870 869 869 870 870 869 869 869 869 868 868 867 867 866 865 866 866
839 848 849 845 845 846 847 848 849 853 853 850 848 850 852 843 833 849 861 849 846 855 858 859 861 862 863 864 865 866 867 867 867 867 866 866 866 866 866 866 865 865 865 865 865 865 865 865 865 865 865 865 866 866 865 865 865 865 865 863 864 866 869 871 872 873 873 873 872 872 872 872 872 872 872 872 873 872 872 872 872 871 871 871 871 871 871 871 870 869 869 868 868 868 867 867 867
842 852 850 848 852 852 852 852 850 854 857 847 842 845 847 840 828 834 847 837 829 841 851 854 857 860 860 861 863 864 865 866 865 866 865 865 865 865 866 866 866 866 866 866 866 867 867 867 867 866 867 868 868 868 866 866 867 867 868 867 867 868 870 872 873 873 874 874 873 873 873 874 874 874 874 874 874 873 874 873 873 872 872 872 872 872 872 871 871 870 870 870 869 869 869 869 868
846 845 841 843 848 849 851 855 852 854 854 844 842 844 841 841 828 820 827 825 821 831 844 852 856 857 857 858 860 862 863 864 864 864 864 864 864 865 865 866 867 866 867 867 868 868 868 869 868 867 869 870 869 870 868 868 869 868 869 870 870 870 872 873 873 874 875 874 874 874 874 875 875 875 875 875 875 874 874 874 874 874 873 873 873 872 872 872 872 872 871 871 870 870 869 869 869
845 835 835 841 845 847 851 854 855 855 848 843 853 855 846 841 826 812 817 824 826 827 831 843 851 851 853 856 859 861 862 863 864 863 863 864 864 864 865 865 866 867 867 868 868 869 870 870 869 869 871 872 871 871 870 870 870 870 871 872 872 872 873 873 874 874 875 875 875 875 875 876 876 876 876 875 875 875 875 875 875 874 874 873 873 873 873 873 873 872 872 871 870 870 870 869 869
842 834 837 842 847 852 850 851 857 854 845 848 859 854 846 839 819 808 813 820 829 832 830 836 843 845 849 854 857 860 861 861 862 863 863 863 863 864 865 865 866 867 867 868 869 869 870 870 870 870 872 873 873 873 872 871 872 872 873 873 873 874 874 874 875 875 876 876 876 876 876 876 876 876 876 876 876 876 876 876 875 875 875 874 874 873 873 873 872 872 871 871 870 870 869 869 869
840 835 836 840 848 853 848 851 858 850 843 854 861 850 842 833 815 812 819 824 834 839 838 838 839 842 846 851 856 858 860 861 861 862 862 861 862 863 864 864 865 866 867 868 869 869 870 871 871 871 872 874 874 873 873 873 873 874 875 875 875 875 875 875 876 877 877 877 876 876 876 876 876 876 876 876 876 876 876 876 876 875 875 874 874 873 873 873 872 871 871 870 870 869 869 868 868
839 835 834 835 837 838 837 839 838 833 838 853 858 844 826 815 816 829 837 839 844 843 843 844 842 844 847 851 856 856 858 860 860 861 861 861 862 862 863 864 864 866 867 868 869 869 870 871 871 871 872 874 874 874 874 874 874 875 876 876 876 876 876 876 877 878 877 877 876 876 876 876 876 876 876 876 876 876 876 875 875 874 874 873 873 872 872 871 871 870 870 869 869 868 868 867 866
840 840 836 832 825 824 836 847 845 841 842 846 847 833 818 813 825 844 847 843 844 843 844 847 844 846 849 851 853 854 855 857 858 860 860 860 861 861 862 863 864 866 866 867 869 869 870 871 872 872 873 874 875 875 875 875 876 876 877 877 877 877 877 877 878 878 877 877 876 876 876 877 877 877 877 876 876 875 875 874 874 873 872 871 871 870 869 869 869 868 867 867 866 866 865 865 864
835 839 830 830 829 823 834 853 864 861 843 832 831 823 818 819 821 835 843 837 838 842 842 845 846 847 849 849 849 850 852 855 856 858 858 859 860 860 861 862 863 865 865 867 868 869 870 870 871 872 873 874 875 875 875 875 876 876 877 877 877 878 878 878 878 877 877 878 877 877 877 877 877 877 877 876 876 876 875 874 873 873 872 871 870 869 869 868 867 867 866 865 864 863 863 862 861
827 830 822 826 833 828 828 837 850 856 841 827 827 820 814 814 810 820 833 827 827 837 842 845 848 848 846 845 846 847 850 853 855 856 857 857 858 859 860 861 862 864 865 866 867 869 870 870 871 872 872 874 874 875 876 876 876 876 876 877 877 878 878 878 878 878 878 878 878 878 878 878 877 877 877 877 876 876 875 874 873 873 872 871 870 869 869 868 867 866 865 864 863 862 861 860 859
821 821 819 822 825 826 832 833 832 838 836 826 827 828 819 810 803 808 816 812 813 829 843 845 844 843 842 841 843 846 848 851 853 854 855 856 856 857 859 860 861 863 864 866 867 868 869 870 871 872 872 873 874 875 875 875 876 876 876 877 877 877 878 878 878 878 879 878 878 878 877 877 877 877 876 876 876 875 874 874 873 872 872 871 870 869 868 867 866 865 864 862 861 860 858 858 857
823 823 822 822 820 821 826 829 825 825 827 823 820 820 811 802 797 794 797 801 807 822 836 838 837 837 836 836 838 841 844 846 849 851 852 853 854 855 857 858 860 862 864 865 866 867 869 870 871 872 872 873 873 874 874 875 875 875 876 877 877 877 877 878 878 878 878 878 877 877 876 876 876 876 876 875 875 875 874 873 872 872 871 870 868 867 866 865 864 863 862 861 859 858 857 856 855
818 819 821 822 823 824 824 826 826 821 819 821 820 810 798 797 800 792 790 799 807 813 820 826 831 832 831 832 833 835 839 842 844 846 848 850 852 853 855 857 859 861 863 864 865 867 868 869 870 871 871 872 872 873 873 874 874 875 876 876 876 877 877 877 878 877 877 877 876 876 876 876 876 876 876 875 875 874 873 872 871 870 869 868 867 866 865 863 862 861 860 859 858 857 855 854 853
805 807 810 811 814 820 822 822 829 828 820 819 821 808 790 795 807 804 799 804 808 812 814 818 825 827 827 829 829 831 835 838 841 843 845 847 849 850 853 856 858 860 861 863 864 865 867 868 869 870 870 871 871 872 872 873 874 874 875 875 876 876 876 877 877 876 876 875 875 875 875 875 875 875 874 874 873 872 871 870 869 868 867 866 865 864 863 862 861 859 858 857 856 855 854 853 852